RYR34J EGJJ-EGKK

Flight info

Callsign RYR34J
Flight time 0h 32m
Altitude 23000
Route ORIST L982 VASUX
Aircraft B38M/M-SDE1FGHILORVWXY/HB1

Departure

Time 2026-05-07 17:46
Airport Jersey Airport (EGJJ)

Arrival

Time 2026-05-07 18:18
Airport London Gatwick Airport (EGKK)
Time Latitude Longitude Altitude Speed Heading
2026-05-07 17:22 49.20559 -2.19752 282 ft 0 kts 174°
2026-05-07 17:36 49.20567 -2.19754 285 ft 3 kts 161°
2026-05-07 17:36 49.20587 -2.19760 287 ft 3 kts 175°
2026-05-07 17:36 49.20603 -2.19760 285 ft 3 kts 212°
2026-05-07 17:37 49.20609 -2.19751 286 ft 2 kts 235°
2026-05-07 17:37 49.20615 -2.19728 284 ft 3 kts 269°
2026-05-07 17:37 49.20616 -2.19710 282 ft 0 kts 263°
2026-05-07 17:41 49.20614 -2.19730 282 ft 4 kts 263°
2026-05-07 17:41 49.20610 -2.19786 282 ft 7 kts 263°
2026-05-07 17:41 49.20603 -2.19875 282 ft 10 kts 263°
2026-05-07 17:42 49.20550 -2.19931 282 ft 11 kts 181°
2026-05-07 17:42 49.20523 -2.19956 282 ft 3 kts 247°
2026-05-07 17:42 49.20520 -2.19998 282 ft 6 kts 275°
2026-05-07 17:42 49.20544 -2.20128 283 ft 17 kts 287°
2026-05-07 17:43 49.20575 -2.20283 284 ft 11 kts 287°
2026-05-07 17:43 49.20602 -2.20424 282 ft 12 kts 285°
2026-05-07 17:43 49.20620 -2.20518 283 ft 8 kts 285°
2026-05-07 17:43 49.20626 -2.20614 283 ft 10 kts 274°
2026-05-07 17:44 49.20668 -2.20695 283 ft 11 kts
2026-05-07 17:44 49.20711 -2.20596 282 ft 13 kts 83°
2026-05-07 17:44 49.20713 -2.20579 283 ft 0 kts 82°
2026-05-07 17:45 49.20735 -2.20315 289 ft 71 kts 83°
2026-05-07 17:45 49.20832 -2.19133 287 ft 156 kts 83°
2026-05-07 17:45 49.20974 -2.17239 801 ft 197 kts 84°
2026-05-07 17:46 49.21151 -2.15090 2112 ft 202 kts 84°
2026-05-07 17:46 49.21335 -2.12921 3367 ft 211 kts 86°
2026-05-07 17:46 49.21522 -2.10646 4444 ft 221 kts 86°
2026-05-07 17:46 49.21721 -2.08288 4930 ft 226 kts 83°
2026-05-07 17:47 49.22381 -2.06116 4932 ft 229 kts 49°
2026-05-07 17:47 49.23721 -2.04793 4963 ft 235 kts 18°
2026-05-07 17:47 49.25343 -2.04486 4996 ft 237 kts
2026-05-07 17:47 49.27029 -2.04382 5003 ft 251 kts
2026-05-07 17:48 49.28827 -2.04277 4996 ft 267 kts
2026-05-07 17:48 49.30732 -2.04172 5084 ft 281 kts
2026-05-07 17:48 49.32698 -2.04068 6065 ft 280 kts
2026-05-07 17:48 49.34656 -2.03965 7271 ft 285 kts
2026-05-07 17:49 49.36664 -2.03861 8371 ft 292 kts
2026-05-07 17:49 49.38708 -2.03754 9533 ft 297 kts
2026-05-07 17:49 49.40766 -2.03646 10540 ft 302 kts
2026-05-07 17:49 49.42876 -2.03534 11641 ft 304 kts
2026-05-07 17:50 49.45000 -2.03423 12707 ft 307 kts
2026-05-07 17:50 49.47152 -2.03310 13745 ft 311 kts
2026-05-07 17:50 49.49327 -2.03196 14631 ft 315 kts
2026-05-07 17:50 49.51540 -2.03080 15475 ft 320 kts
2026-05-07 17:51 49.53784 -2.02963 16324 ft 325 kts
2026-05-07 17:51 49.56061 -2.02844 17135 ft 330 kts
2026-05-07 17:51 49.58376 -2.02721 17942 ft 335 kts
2026-05-07 17:51 49.60726 -2.02598 18683 ft 340 kts 360°
2026-05-07 17:52 49.63112 -2.02472 19377 ft 344 kts 360°
2026-05-07 17:52 49.65517 -2.02345 20076 ft 348 kts 360°
2026-05-07 17:52 49.67929 -2.02217 20749 ft 352 kts 360°
2026-05-07 17:52 49.70391 -2.02087 21428 ft 356 kts 360°
2026-05-07 17:53 49.72881 -2.01955 22096 ft 360 kts 360°
2026-05-07 17:53 49.75391 -2.01822 22736 ft 364 kts 360°
2026-05-07 17:53 49.77968 -2.01567 22934 ft 380 kts
2026-05-07 17:53 49.80510 -2.00167 22962 ft 397 kts 27°
2026-05-07 17:54 49.83017 -1.98149 22972 ft 414 kts 26°
2026-05-07 17:54 49.85612 -1.96049 22974 ft 426 kts 30°
2026-05-07 17:54 49.88018 -1.93308 23001 ft 431 kts 40°
2026-05-07 17:54 49.90340 -1.90340 23010 ft 432 kts 39°
2026-05-07 17:55 49.92647 -1.87453 23018 ft 433 kts 38°
2026-05-07 17:55 49.94999 -1.84531 23017 ft 433 kts 38°
2026-05-07 17:55 49.97352 -1.81615 23020 ft 432 kts 38°
2026-05-07 17:55 49.99699 -1.78707 23018 ft 432 kts 38°
2026-05-07 17:56 50.02047 -1.75795 23017 ft 432 kts 38°
2026-05-07 17:56 50.04397 -1.72877 23016 ft 432 kts 38°
2026-05-07 17:56 50.06740 -1.69964 23020 ft 432 kts 38°
2026-05-07 17:56 50.09084 -1.67045 23025 ft 431 kts 38°
2026-05-07 17:57 50.11431 -1.64119 23024 ft 431 kts 38°
2026-05-07 17:57 50.12978 -1.62188 23023 ft 431 kts 38°
2026-05-07 17:57 50.16112 -1.58273 23019 ft 431 kts 38°
2026-05-07 17:57 50.18450 -1.55347 23015 ft 431 kts 39°
2026-05-07 17:58 50.20785 -1.52422 23023 ft 431 kts 39°
2026-05-07 17:58 50.23094 -1.49524 23022 ft 431 kts 39°
2026-05-07 17:58 50.25426 -1.46595 22997 ft 428 kts 39°
2026-05-07 17:58 50.27715 -1.43715 22782 ft 416 kts 39°
2026-05-07 17:59 50.29942 -1.40909 22430 ft 408 kts 39°
2026-05-07 17:59 50.32144 -1.38132 21977 ft 404 kts 39°
2026-05-07 17:59 50.34319 -1.35385 21538 ft 400 kts 38°
2026-05-07 17:59 50.36478 -1.32656 21102 ft 396 kts 38°
2026-05-07 18:00 50.38615 -1.29952 20675 ft 393 kts 38°
2026-05-07 18:00 50.40730 -1.27272 20250 ft 389 kts 38°
2026-05-07 18:00 50.42800 -1.24646 19840 ft 386 kts 38°
2026-05-07 18:00 50.44879 -1.22005 19431 ft 384 kts 38°
2026-05-07 18:01 50.46947 -1.19376 19027 ft 381 kts 38°
2026-05-07 18:01 50.48999 -1.16764 18626 ft 378 kts 38°
2026-05-07 18:01 50.51039 -1.14164 18223 ft 376 kts 38°
2026-05-07 18:01 50.53062 -1.11582 17774 ft 373 kts 38°
2026-05-07 18:02 50.57065 -1.06466 16916 ft 368 kts 38°
2026-05-07 18:02 50.59042 -1.03934 16511 ft 365 kts 39°
2026-05-07 18:02 50.61008 -1.01415 16119 ft 362 kts 39°
2026-05-07 18:03 50.62952 -0.98920 15713 ft 360 kts 39°
2026-05-07 18:03 50.64864 -0.96464 15304 ft 358 kts 39°
2026-05-07 18:03 50.66791 -0.93987 14902 ft 356 kts 39°
2026-05-07 18:03 50.68702 -0.91526 14498 ft 354 kts 39°
2026-05-07 18:04 50.70610 -0.89068 14099 ft 352 kts 39°
2026-05-07 18:04 50.72494 -0.86638 13690 ft 350 kts 39°
2026-05-07 18:04 50.74385 -0.84197 13251 ft 349 kts 39°
2026-05-07 18:04 50.76240 -0.81799 13078 ft 340 kts 39°
2026-05-07 18:05 50.78055 -0.79449 13066 ft 337 kts 39°
2026-05-07 18:05 50.79856 -0.77074 13048 ft 336 kts 44°
2026-05-07 18:05 50.81175 -0.74069 13031 ft 334 kts 69°
2026-05-07 18:05 50.81702 -0.70508 13042 ft 332 kts 81°
2026-05-07 18:06 50.82111 -0.66922 12596 ft 332 kts 81°
2026-05-07 18:06 50.82527 -0.63372 12159 ft 322 kts 80°
2026-05-07 18:06 50.82923 -0.59969 11917 ft 307 kts 81°
2026-05-07 18:06 50.83307 -0.56654 11727 ft 306 kts 80°
2026-05-07 18:07 50.83689 -0.53347 11514 ft 305 kts 80°
2026-05-07 18:07 50.84069 -0.50057 11303 ft 304 kts 80°
2026-05-07 18:07 50.84447 -0.46774 11100 ft 303 kts 80°
2026-05-07 18:07 50.84824 -0.43494 10895 ft 302 kts 80°
2026-05-07 18:08 50.85214 -0.40276 10694 ft 301 kts 75°
2026-05-07 18:08 50.86142 -0.37339 10482 ft 299 kts 50°
2026-05-07 18:08 50.87739 -0.35313 10291 ft 293 kts 24°
2026-05-07 18:08 50.89689 -0.34580 10129 ft 280 kts 357°
2026-05-07 18:09 50.91530 -0.35225 10053 ft 275 kts 334°
2026-05-07 18:09 50.93001 -0.36340 9782 ft 275 kts 331°
2026-05-07 18:09 50.94733 -0.37744 9161 ft 284 kts 331°
2026-05-07 18:09 50.96462 -0.39176 8543 ft 287 kts 331°
2026-05-07 18:10 50.98211 -0.40696 7938 ft 284 kts 324°
2026-05-07 18:10 50.99569 -0.42907 7344 ft 280 kts 303°
2026-05-07 18:10 51.00598 -0.45501 6890 ft 274 kts 301°
2026-05-07 18:10 51.01563 -0.48060 6508 ft 266 kts 301°
2026-05-07 18:11 51.02492 -0.50555 6107 ft 259 kts 301°
2026-05-07 18:11 51.03092 -0.52180 5844 ft 255 kts 301°
2026-05-07 18:11 51.04254 -0.55346 5366 ft 247 kts 301°
2026-05-07 18:11 51.05104 -0.57685 5015 ft 241 kts 301°
2026-05-07 18:12 51.05937 -0.59974 4655 ft 236 kts 303°
2026-05-07 18:12 51.07047 -0.61809 4263 ft 230 kts 332°
2026-05-07 18:12 51.08543 -0.62483 3920 ft 220 kts
2026-05-07 18:12 51.09957 -0.61882 3712 ft 205 kts 34°
2026-05-07 18:13 51.10868 -0.60275 3579 ft 196 kts 68°
2026-05-07 18:13 51.11052 -0.58123 3568 ft 201 kts 97°
2026-05-07 18:13 51.10821 -0.55904 3561 ft 206 kts 98°
2026-05-07 18:13 51.10663 -0.53631 3477 ft 206 kts 94°
2026-05-07 18:14 51.10630 -0.51348 3389 ft 206 kts 88°
2026-05-07 18:14 51.10748 -0.49068 3278 ft 207 kts 82°
2026-05-07 18:14 51.10989 -0.46831 3187 ft 201 kts 79°
2026-05-07 18:14 51.11270 -0.44714 3045 ft 190 kts 78°
2026-05-07 18:15 51.11544 -0.42730 2938 ft 176 kts 78°
2026-05-07 18:15 51.11799 -0.40885 2745 ft 163 kts 78°
2026-05-07 18:15 51.12039 -0.39133 2612 ft 163 kts 79°
2026-05-07 18:15 51.12278 -0.37395 2391 ft 163 kts 79°
2026-05-07 18:16 51.12524 -0.35624 2167 ft 163 kts 79°
2026-05-07 18:16 51.12769 -0.33859 1922 ft 163 kts 79°
2026-05-07 18:16 51.13012 -0.32093 1700 ft 164 kts 79°
2026-05-07 18:16 51.13252 -0.30357 1471 ft 154 kts 80°
2026-05-07 18:17 51.13474 -0.28739 1210 ft 147 kts 79°
2026-05-07 18:17 51.13710 -0.27161 911 ft 145 kts 79°
2026-05-07 18:17 51.13929 -0.25608 773 ft 143 kts 81°
2026-05-07 18:17 51.14119 -0.24068 647 ft 142 kts 79°
2026-05-07 18:18 51.14329 -0.22538 501 ft 142 kts 79°
2026-05-07 18:18 51.14547 -0.21011 287 ft 140 kts 81°
2026-05-07 18:18 51.14737 -0.19588 211 ft 106 kts 77°
2026-05-07 18:18 51.14846 -0.18786 212 ft 47 kts 75°
2026-05-07 18:19 51.14949 -0.18496 212 ft 21 kts 47°
2026-05-07 18:19 51.15027 -0.18339 215 ft 0 kts 51°
2026-05-07 18:20 51.15037 -0.18319 213 ft 8 kts 51°
2026-05-07 18:20 51.15090 -0.18220 207 ft 9 kts 50°
2026-05-07 18:20 51.15121 -0.18124 214 ft 8 kts 70°
2026-05-07 18:20 51.15144 -0.18061 214 ft 6 kts 78°
2026-05-07 18:21 51.15155 -0.17975 209 ft 10 kts 78°